Temperature
14 15 15 15 13 12 13 14 15 17 18 21 22 22 21 21 21 21 22 22 21 20 19 18 18 17 17 17 17 17 17 17 17 16 16 16 16 15 15 15 15 15 14 14 14 14 14 14 14
14 14 14 14 12 13 13 14 16 17 19 21 22 22 21 21 22 22 21 21 21 20 19 18 18 17 17 17 17 17 17 16 16 16 16 16 15 15 15 15 15 14 14 14 14 14 14 13 13
14 14 14 12 12 13 14 15 16 18 20 20 21 21 21 21 22 22 22 21 20 20 19 18 17 17 17 17 17 16 16 16 16 16 16 16 15 15 15 14 14 14 14 14 14 14 14 13 13
13 14 13 12 13 13 15 16 16 17 19 20 20 20 21 21 21 22 21 21 20 20 19 18 17 17 17 16 16 16 16 16 16 16 16 15 15 15 14 14 14 14 14 14 13 13 13 13 13
13 13 12 12 13 14 14 16 17 16 17 19 19 18 20 20 21 21 21 20 20 19 19 18 17 17 16 16 16 16 16 16 15 15 15 15 15 14 14 14 14 14 13 13 13 13 13 13 13
12 11 11 12 13 14 14 17 17 16 17 18 18 18 19 20 20 20 20 20 20 19 18 18 17 17 16 16 16 16 16 15 15 15 15 15 14 14 14 14 13 13 13 13 13 13 13 13 13
12 10 11 12 13 14 15 17 16 16 16 17 18 17 18 19 19 19 19 19 18 18 18 17 17 16 16 16 16 16 15 15 15 15 15 14 14 14 14 14 13 13 13 13 13 13 13 12 12
12 10 11 11 12 13 15 16 16 16 16 17 18 16 17 18 18 18 18 18 17 17 17 17 17 16 16 16 16 15 15 15 15 14 14 14 14 14 14 13 13 13 13 13 13 13 13 12 12
11 10 10 11 12 13 14 14 15 16 16 17 17 17 18 17 17 17 17 17 17 16 16 16 16 16 16 16 15 15 15 15 14 14 14 14 14 13 13 13 13 13 13 13 13 12 12 12 12
11 9 10 12 12 12 13 13 14 14 14 15 16 17 17 16 16 16 16 16 16 16 16 16 16 16 16 15 15 15 14 14 14 14 14 14 13 13 13 13 13 13 12 13 13 12 12 12 12
10 9 10 11 12 13 13 13 14 13 13 14 15 15 16 15 15 15 15 16 16 16 16 16 16 16 15 15 15 15 14 14 14 14 14 13 13 13 13 13 12 12 12 12 12 12 12 12 11
9 10 11 11 12 12 12 12 12 13 13 15 15 15 15 15 15 15 15 15 15 15 16 16 16 15 15 15 15 15 14 14 14 14 13 13 13 13 13 12 12 12 12 12 12 12 12 11 11
9 9 10 11 11 11 11 12 12 12 14 14 14 15 15 15 15 15 15 15 15 15 15 15 15 15 15 15 15 15 14 14 14 14 13 13 13 13 12 12 12 12 12 12 12 12 12 11 11
9 9 9 10 11 11 11 11 11 12 13 13 13 14 14 14 15 15 14 15 15 15 15 15 15 15 15 15 15 15 14 14 14 13 13 13 13 13 12 12 12 12 12 12 12 12 11 11 11
9 8 8 9 10 11 11 10 10 13 13 12 13 13 14 14 14 15 15 15 15 15 15 15 15 15 15 14 15 14 14 14 14 13 13 13 13 13 12 12 12 12 12 11 11 11 11 11 11
7 7 7 9 10 10 10 9 11 12 12 12 12 13 13 14 14 14 15 15 15 14 14 14 14 14 14 14 14 14 14 14 14 13 13 13 13 12 12 12 12 12 11 11 11 11 11 11 11
6 6 7 8 9 10 9 9 10 12 11 11 12 12 13 13 13 14 14 14 14 14 14 14 14 14 14 14 14 14 14 14 14 13 13 13 13 12 12 12 12 11 11 11 11 11 11 11 10
6 6 7 7 9 9 9 9 10 11 11 11 11 11 12 12 12 13 13 14 14 14 14 14 14 14 14 14 14 13 13 13 13 13 13 13 13 12 12 12 12 11 11 11 11 11 10 10 10
7 7 6 7 9 8 8 9 9 10 10 10 10 11 11 12 13 13 13 13 13 14 14 14 14 14 14 13 13 13 13 13 13 13 13 13 13 12 12 12 12 11 11 11 11 10 10 10 10
7 6 6 7 9 9 8 9 9 9 10 10 10 10 11 12 12 12 13 13 13 13 13 13 13 13 13 13 13 13 13 13 13 13 12 12 12 12 12 12 11 11 11 11 11 11 10 10 10
7 6 7 7 8 8 7 8 8 9 10 10 10 11 11 11 11 12 12 12 13 13 13 13 13 13 13 13 13 13 12 12 12 12 12 12 12 12 12 12 12 11 11 11 11 11 11 10 10
6 7 8 8 7 6 7 7 7 8 9 9 9 10 11 11 11 12 12 12 12 13 13 12 13 13 13 13 13 12 12 12 13 12 12 12 12 12 12 12 12 11 11 11 11 11 11 10 10
7 8 8 7 6 5 6 6 7 8 8 9 9 10 10 11 11 11 12 12 12 12 12 12 13 12 12 13 13 13 12 12 12 12 12 12 12 12 12 12 12 12 11 11 11 11 11 10 10
7 7 6 5 5 5 6 6 6 7 8 9 9 10 10 11 11 11 11 12 12 12 12 12 12 12 12 12 12 12 12 12 12 12 12 12 12 11 11 11 11 12 11 11 11 11 11 10 10
7 5 5 4 4 5 6 6 7 7 8 8 9 9 10 10 10 11 11 11 11 11 11 11 11 11 12 12 12 12 12 12 12 12 12 12 12 11 11 11 11 11 11 11 11 11 10 10 10
6 5 5 4 4 5 6 6 7 8 8 9 9 9 9 10 10 10 10 10 10 10 11 11 11 11 11 11 11 12 11 12 12 12 12 12 12 12 12 11 11 11 11 11 11 11 10 10 10
6 5 5 4 4 4 5 6 6 8 7 7 8 8 9 9 9 9 10 10 10 10 10 10 10 11 11 11 11 11 11 11 11 11 12 12 12 12 11 11 11 11 11 11 11 11 10 10 10
6 5 4 4 4 4 5 5 6 6 7 7 7 7 8 8 9 9 9 9 9 10 10 10 10 10 10 11 11 10 11 11 11 11 11 11 11 11 11 11 11 11 11 11 11 11 10 10 10
5 5 4 3 3 4 4 6 7 6 6 6 6 7 8 8 8 8 9 9 9 9 9 9 10 10 10 10 10 10 10 10 11 11 11 11 11 11 11 11 11 11 11 11 11 11 10 10 10
5 5 4 3 3 3 3 5 7 6 6 6 6 7 8 8 8 8 8 8 8 8 9 9 9 9 9 9 10 10 10 10 10 10 11 11 11 11 11 11 10 11 11 11 11 11 10 10 10
Wind_Speed
7 3 3 3 3 1 7 7 5 5 5 5 5 4 5 5 4 4 1 9 12 16 17 22 23 22 22 21 21 21 21 21 20 20 20 19 19 19 19 18 17 17 17 17 17 17 17 17 16
3 1 3 3 3 6 8 8 9 10 8 4 3 2 1 3 3 4 5 9 15 17 17 20 22 22 22 22 21 22 21 21 20 20 20 20 19 19 18 18 17 17 17 17 17 17 17 16 16
2 2 3 2 6 11 8 6 11 10 10 6 4 3 2 4 4 6 6 13 15 15 16 19 23 23 22 22 22 22 21 21 20 21 20 20 19 19 18 18 17 17 17 17 16 16 16 16 15
2 2 1 5 14 12 8 5 3 6 7 5 2 4 2 2 4 5 9 14 15 13 15 20 24 23 22 22 22 22 21 21 20 20 20 20 20 19 18 18 17 17 17 17 16 16 16 15 14
2 2 4 10 16 9 7 8 8 9 7 6 3 3 4 4 1 7 11 13 14 13 14 19 24 23 22 22 22 22 21 21 21 20 20 20 20 19 18 18 17 17 17 17 17 16 16 15 14
1 2 6 13 15 9 7 7 8 10 9 7 3 3 4 2 5 6 9 10 13 14 13 17 23 23 23 22 22 22 22 22 21 21 21 20 20 19 19 19 18 18 18 17 17 16 15 14 13
3 3 9 11 11 9 8 5 6 7 9 7 3 3 4 2 2 5 5 7 9 10 11 12 17 20 22 22 22 22 22 22 21 21 21 20 20 20 19 19 19 18 18 17 16 16 15 14 13
4 3 8 9 11 10 5 4 6 7 9 6 2 3 5 6 2 3 4 5 7 8 10 10 12 14 16 18 21 21 22 22 21 21 20 20 20 19 19 19 19 18 17 17 16 15 14 13 12
2 4 11 10 9 7 4 6 7 7 7 6 4 6 7 5 3 4 3 2 5 7 8 9 10 11 13 14 18 20 21 21 21 20 20 19 16 16 17 17 18 18 17 16 15 15 13 11 10
4 8 11 7 6 8 10 9 8 7 10 9 9 8 4 5 7 7 7 8 8 9 9 9 10 10 11 12 13 14 15 16 16 16 17 15 14 14 15 17 18 17 17 16 15 14 12 9 7
5 8 7 8 9 10 12 12 8 8 13 11 9 9 5 6 8 9 10 11 11 11 10 10 10 10 11 9 9 8 9 11 13 16 16 14 13 12 12 12 13 14 14 11 11 10 8 7 6
5 9 9 8 9 10 12 10 10 11 15 12 10 9 9 10 11 12 12 12 10 10 11 11 11 10 10 10 9 9 9 9 10 14 17 13 8 8 8 8 9 9 9 8 8 6 6 6 6
7 8 9 10 11 12 13 14 13 15 17 13 12 10 11 13 12 12 11 11 11 12 12 12 12 12 11 10 9 10 10 10 12 13 16 15 10 9 8 8 9 9 10 8 6 6 6 5 5
5 7 11 12 13 11 13 15 11 15 12 11 11 12 12 13 13 11 10 11 12 13 13 13 13 13 12 10 10 10 11 11 12 12 16 18 14 11 10 8 8 9 10 10 8 7 6 5 4
5 8 11 10 10 7 7 12 12 15 10 12 13 14 13 13 13 14 14 13 13 13 12 13 14 13 13 13 12 11 11 12 11 12 17 18 17 14 12 10 9 9 12 11 8 7 5 5 4
4 4 6 6 5 5 4 13 12 10 10 14 14 13 14 13 14 14 13 13 12 12 12 13 13 13 14 12 11 10 11 12 11 13 14 18 19 18 13 10 10 11 11 8 7 6 5 5 5
2 4 7 9 5 4 6 12 13 10 10 14 15 13 13 12 12 12 12 12 11 11 11 12 12 13 14 13 11 11 11 12 11 12 13 16 19 19 14 11 10 12 9 8 8 7 6 6 5
6 6 7 9 7 7 11 16 17 12 11 12 12 11 11 10 12 11 11 11 11 10 11 11 11 11 12 11 8 8 10 10 10 11 13 17 17 18 15 11 12 13 9 9 8 8 6 6 6
7 9 13 14 11 9 14 18 19 16 11 11 11 10 10 11 11 9 9 9 8 8 9 10 10 10 10 9 10 10 10 10 10 11 14 17 17 18 15 12 12 12 11 11 11 7 8 5 5
8 11 13 12 8 9 13 18 16 14 11 10 10 10 10 10 7 7 7 7 8 9 9 9 11 10 10 9 10 8 8 8 10 10 12 16 17 18 16 14 13 12 11 12 12 9 6 5 6
9 10 10 11 11 6 8 11 9 8 8 8 8 8 8 9 8 7 7 7 7 9 10 10 11 11 10 9 6 5 5 5 7 10 11 13 16 17 16 16 14 13 13 13 12 12 10 8 6
9 8 10 10 8 6 3 8 8 7 8 8 8 8 8 8 7 6 6 6 7 10 9 9 10 10 10 10 9 10 10 10 10 10 10 11 14 16 16 17 16 15 13 13 13 12 9 10 8
7 6 7 8 6 7 5 6 9 5 8 9 7 8 8 7 6 6 6 7 6 7 7 8 8 8 9 10 11 11 10 9 7 8 11 12 12 14 15 16 16 16 14 14 14 12 11 10 9
3 4 5 2 0 5 5 6 7 4 7 7 6 6 5 5 4 4 4 3 3 3 4 5 6 7 7 9 11 12 11 10 10 11 12 11 10 11 15 15 15 16 14 15 14 14 14 12 10
1 2 4 5 2 6 3 5 8 8 7 6 6 5 4 3 2 3 3 3 3 3 3 4 5 7 7 8 10 11 12 11 14 13 13 12 10 10 14 14 14 14 15 15 14 14 14 14 13
2 4 3 3 5 5 4 6 6 8 6 5 4 3 3 3 3 3 3 3 3 4 4 4 6 7 7 9 9 9 10 10 10 13 12 14 12 13 13 15 15 15 15 15 14 13 14 13 13
2 3 4 3 4 5 6 6 7 6 7 6 5 4 4 4 4 4 4 4 4 5 5 5 6 6 7 8 8 8 9 10 10 10 12 12 11 11 13 15 15 15 15 16 16 13 14 13 14
4 4 2 2 3 5 6 5 5 6 6 6 5 5 5 5 5 5 4 4 4 4 5 5 5 6 6 6 6 7 8 9 9 8 10 12 13 12 13 14 15 15 16 16 16 13 13 15 13
3 2 3 3 3 4 5 6 4 4 3 3 5 5 5 6 6 6 4 4 4 4 3 4 5 5 4 4 5 6 7 9 9 9 10 11 12 13 14 15 15 15 15 16 16 16 16 17 15
6 6 6 4 6 5 5 9 5 4 3 3 5 7 6 6 6 6 5 6 5 5 4 3 3 3 4 4 5 6 6 6 8 9 9 10 12 12 13 14 15 15 15 15 17 18 17 17 17
Wind_Direction
325 356 77 70 74 212 238 235 229 246 250 236 227 179 172 188 185 214 153 145 142 154 165 166 165 164 162 159 157 154 151 149 147 145 143 142 140 139 138 136 135 134 131 128 124 123 121 118 114
328 48 73 87 163 222 244 225 228 237 240 278 279 230 203 227 207 148 143 160 150 156 163 166 166 165 164 161 158 156 154 153 151 149 147 145 144 143 141 139 137 134 131 128 126 124 123 121 118
312 161 127 154 203 215 226 220 224 247 260 267 284 287 213 203 180 176 178 154 150 157 163 166 166 166 165 163 161 158 157 156 155 152 150 149 147 146 144 141 139 136 133 132 130 129 127 125 121
51 85 112 213 232 227 223 246 265 279 289 271 258 293 275 259 187 182 149 147 151 158 161 166 168 169 168 166 163 161 160 160 158 156 155 153 151 149 146 145 143 140 138 136 135 134 132 130 125
68 123 213 235 240 240 244 266 283 281 276 279 282 255 273 310 116 133 141 150 154 160 163 168 170 172 171 170 167 164 164 162 161 160 158 156 155 152 149 148 147 145 144 142 140 139 138 135 129
94 149 214 236 242 246 248 257 269 269 272 281 290 266 262 298 102 135 148 154 159 162 167 170 172 173 173 172 170 168 167 165 164 163 161 160 158 156 154 153 152 150 148 147 145 143 144 140 132
159 196 231 241 252 254 249 248 245 263 272 269 254 251 276 283 151 139 147 152 155 160 164 170 173 175 175 174 172 171 170 168 167 166 164 162 161 159 158 158 156 154 152 150 150 150 149 145 136
165 205 245 244 248 252 256 260 248 258 264 274 246 208 245 260 269 126 129 148 154 159 167 171 172 173 175 175 174 174 173 171 170 169 164 161 160 161 159 158 158 156 155 155 155 155 154 149 140
141 222 237 238 245 260 295 293 282 279 270 277 262 238 249 217 178 133 140 167 171 168 172 173 173 174 173 175 177 174 174 174 171 168 163 160 159 158 158 158 159 160 159 159 159 160 159 153 145
177 227 239 246 259 279 289 284 287 298 287 283 296 299 281 183 178 179 185 196 197 189 184 179 179 177 174 177 175 173 173 173 170 165 163 160 157 158 159 161 162 163 162 163 163 164 163 153 143
207 230 253 264 272 278 280 280 276 271 271 264 270 280 264 239 213 204 201 201 206 198 189 185 184 180 180 178 172 172 169 168 168 165 164 161 157 159 159 160 164 163 162 162 162 160 160 155 151
249 255 259 266 276 277 273 276 278 257 259 264 259 249 238 240 230 220 211 208 207 206 201 191 186 183 185 181 179 176 174 174 175 173 169 163 162 164 164 163 164 164 165 162 161 160 166 169 170
257 273 273 274 278 272 275 267 269 267 270 274 270 257 238 236 235 232 221 212 209 208 209 198 190 187 186 184 185 183 181 182 180 179 177 172 171 173 171 171 171 172 172 171 171 169 171 170 169
263 281 287 280 275 271 266 270 264 265 271 275 269 260 248 239 234 234 227 220 216 213 211 203 195 191 188 190 191 188 186 185 183 184 182 178 177 176 175 176 176 179 180 181 179 175 170 171 164
294 295 292 271 260 260 267 270 246 258 274 276 271 263 258 249 240 230 224 221 218 216 212 205 201 194 190 193 195 192 189 187 188 189 187 184 181 179 178 179 181 184 185 181 176 172 163 167 168
312 293 284 274 259 253 232 261 257 266 270 269 269 267 262 256 243 237 228 225 220 217 213 210 207 200 196 195 197 196 192 191 191 190 189 187 185 182 179 180 184 184 181 175 173 172 166 171 168
294 277 275 290 261 250 231 264 272 278 273 268 269 267 266 265 253 244 234 225 218 214 211 210 204 201 199 197 198 199 195 195 194 191 189 189 187 184 182 183 183 180 177 177 179 175 169 170 170
255 268 274 279 277 273 268 271 280 280 272 267 269 267 267 267 259 249 239 230 222 214 210 209 202 201 198 196 196 202 199 196 195 195 193 188 189 185 183 183 181 178 177 180 177 173 172 170 168
252 270 277 278 280 277 268 274 279 280 276 268 269 266 263 267 257 243 236 230 224 213 210 210 201 201 194 193 193 200 204 197 196 199 196 190 189 186 185 185 182 181 183 183 177 171 171 172 155
260 275 279 286 283 282 277 277 275 270 265 260 258 264 262 271 278 257 240 233 223 213 208 209 200 202 201 201 201 201 201 200 198 197 197 193 190 188 190 185 185 184 183 181 181 170 169 174 170
259 255 268 282 305 290 288 285 267 274 264 266 258 255 263 264 267 262 247 235 228 221 216 217 205 202 206 199 196 199 194 194 195 197 198 198 193 191 192 189 186 186 185 188 187 181 175 180 186
265 247 263 282 302 293 298 291 278 278 283 275 269 265 264 265 265 262 253 242 232 228 221 220 208 204 206 194 192 197 203 206 206 196 196 197 198 194 194 191 188 188 189 189 189 187 183 175 184
248 265 272 276 274 285 257 254 286 303 288 281 272 267 267 265 263 266 252 239 233 228 222 214 208 209 208 200 198 202 212 213 203 193 192 195 199 198 196 195 192 191 192 191 189 187 186 186 186
263 325 315 322 303 275 240 224 282 270 263 280 291 289 281 273 270 274 263 249 249 247 232 206 205 219 215 205 200 204 210 211 200 199 199 200 201 204 200 196 196 193 193 192 192 191 189 192 190
59 37 349 345 331 254 259 241 257 271 274 261 272 283 294 299 304 309 296 275 269 271 243 217 209 223 223 211 205 210 212 216 211 205 203 204 203 208 203 198 199 197 195 193 191 192 195 194 193
218 158 182 243 255 283 288 248 258 279 299 299 295 296 314 327 334 329 300 277 260 259 242 226 224 226 224 217 213 216 217 221 223 213 207 207 209 210 203 200 202 201 196 194 192 196 197 196 199
194 211 204 203 274 279 269 279 298 309 331 337 343 348 337 321 325 323 314 308 286 259 245 230 226 231 230 221 218 218 223 222 222 220 213 211 210 209 205 202 201 202 199 197 193 199 200 197 201
194 180 124 177 253 267 277 272 272 294 315 335 344 342 325 321 324 324 318 314 306 283 249 237 229 228 233 225 218 225 226 227 220 214 220 216 210 208 207 207 203 202 200 198 197 198 199 199 202
201 191 190 204 220 234 273 269 244 249 275 297 315 328 329 320 316 316 319 324 316 316 303 253 240 235 234 235 238 232 232 227 220 219 221 223 215 209 209 210 206 204 203 200 199 202 199 202 204
214 209 189 211 248 232 251 270 269 257 270 293 313 323 328 324 322 324 330 334 335 329 324 307 282 258 248 239 240 242 241 234 224 225 227 225 217 210 211 210 208 207 204 202 202 203 202 203 205
Height
1502 1504 1506 1507 1510 1514 1510 1500 1492 1487 1484 1479 1478 1477 1477 1478 1480 1484 1477 1475 1477 1479 1481 1484 1486 1489 1492 1494 1496 1498 1500 1502 1503 1505 1507 1508 1510 1511 1513 1514 1515 1516 1517 1518 1519 1520 1521 1522 1523
1502 1503 1506 1506 1511 1513 1505 1493 1488 1483 1479 1478 1477 1476 1475 1474 1474 1475 1474 1475 1477 1479 1481 1483 1485 1488 1491 1493 1495 1497 1499 1501 1503 1504 1506 1508 1509 1511 1512 1514 1515 1516 1517 1518 1519 1520 1521 1522 1523
1501 1502 1504 1505 1505 1502 1495 1485 1482 1479 1478 1478 1477 1475 1474 1473 1473 1473 1473 1475 1477 1478 1480 1482 1485 1487 1489 1492 1494 1496 1498 1500 1502 1504 1505 1507 1509 1510 1512 1513 1514 1516 1517 1518 1519 1520 1521 1522 1523
1500 1502 1502 1503 1495 1488 1485 1480 1479 1479 1477 1476 1476 1474 1473 1473 1472 1473 1473 1474 1475 1477 1479 1481 1484 1486 1488 1491 1493 1495 1497 1499 1501 1503 1504 1506 1508 1510 1511 1513 1514 1515 1516 1517 1519 1520 1521 1522 1524
1498 1499 1501 1497 1488 1483 1480 1479 1479 1479 1477 1475 1475 1473 1472 1472 1472 1472 1472 1473 1474 1476 1478 1480 1483 1485 1488 1490 1492 1494 1496 1498 1500 1502 1503 1505 1507 1509 1510 1512 1513 1514 1516 1517 1518 1520 1521 1523 1524
1497 1496 1499 1492 1484 1480 1479 1479 1479 1478 1475 1474 1474 1472 1470 1470 1470 1470 1471 1472 1474 1475 1477 1479 1482 1484 1486 1488 1491 1493 1495 1497 1499 1501 1502 1504 1506 1507 1509 1511 1512 1514 1515 1517 1518 1519 1521 1522 1524
1495 1496 1493 1488 1483 1481 1477 1477 1478 1476 1474 1473 1472 1471 1469 1468 1468 1468 1470 1471 1473 1474 1476 1478 1480 1482 1485 1487 1489 1491 1493 1495 1497 1499 1501 1503 1505 1506 1508 1510 1511 1513 1515 1516 1517 1519 1521 1522 1523
1492 1494 1489 1485 1482 1479 1476 1476 1475 1475 1472 1471 1471 1469 1467 1467 1466 1467 1468 1470 1471 1473 1474 1476 1478 1480 1483 1485 1487 1489 1492 1494 1496 1498 1500 1502 1503 1505 1507 1509 1510 1512 1514 1515 1517 1518 1520 1522 1523
1490 1494 1487 1482 1480 1477 1475 1474 1473 1472 1470 1468 1468 1467 1465 1465 1464 1465 1466 1467 1469 1471 1472 1474 1476 1478 1480 1483 1485 1487 1490 1492 1494 1496 1498 1500 1502 1504 1506 1507 1509 1511 1513 1515 1516 1518 1520 1521 1522
1488 1488 1481 1478 1477 1476 1474 1473 1472 1470 1467 1465 1463 1462 1462 1462 1462 1461 1462 1463 1465 1467 1469 1471 1473 1475 1477 1480 1482 1484 1487 1489 1492 1493 1496 1498 1500 1502 1504 1506 1508 1509 1511 1513 1515 1517 1519 1520 1522
1483 1482 1478 1476 1476 1475 1472 1470 1469 1468 1464 1462 1461 1459 1459 1459 1458 1458 1458 1459 1461 1463 1465 1467 1470 1472 1474 1476 1479 1481 1484 1486 1488 1491 1493 1495 1498 1500 1502 1504 1506 1508 1510 1512 1514 1516 1518 1519 1521
1481 1477 1476 1474 1473 1472 1470 1467 1466 1463 1459 1459 1458 1457 1456 1455 1454 1453 1454 1455 1458 1459 1461 1463 1466 1468 1470 1472 1475 1477 1479 1482 1485 1487 1490 1492 1494 1497 1499 1501 1504 1506 1508 1510 1512 1514 1516 1518 1520
1478 1475 1473 1471 1470 1468 1466 1463 1462 1457 1455 1455 1453 1452 1451 1450 1450 1449 1450 1451 1453 1454 1456 1458 1461 1463 1466 1468 1471 1473 1475 1478 1481 1483 1486 1489 1491 1493 1496 1499 1501 1503 1506 1508 1510 1512 1514 1516 1518
1476 1473 1471 1468 1465 1463 1462 1458 1458 1450 1451 1450 1449 1447 1446 1446 1445 1445 1446 1446 1448 1449 1451 1453 1456 1458 1461 1463 1465 1468 1471 1474 1477 1479 1481 1485 1487 1490 1493 1495 1498 1501 1503 1506 1508 1510 1512 1514 1516
1475 1473 1469 1464 1461 1459 1458 1454 1451 1447 1447 1445 1444 1442 1441 1440 1440 1440 1440 1440 1442 1443 1445 1447 1450 1453 1455 1458 1460 1463 1466 1469 1472 1474 1477 1480 1483 1486 1489 1492 1495 1498 1500 1503 1506 1508 1510 1512 1514
1475 1474 1472 1462 1458 1456 1460 1453 1445 1444 1444 1441 1439 1438 1435 1434 1434 1434 1434 1435 1436 1437 1439 1441 1444 1447 1450 1452 1455 1458 1461 1463 1466 1469 1472 1475 1478 1482 1485 1488 1491 1494 1497 1500 1503 1505 1507 1509 1512
1478 1477 1471 1462 1456 1454 1455 1448 1440 1439 1439 1436 1434 1432 1430 1429 1428 1429 1429 1429 1430 1431 1433 1435 1438 1441 1444 1447 1450 1452 1455 1458 1461 1464 1467 1470 1474 1477 1480 1483 1487 1491 1493 1496 1499 1502 1504 1506 1509
1478 1475 1469 1465 1456 1453 1451 1443 1436 1434 1434 1430 1428 1426 1424 1423 1422 1422 1423 1424 1425 1426 1427 1429 1431 1434 1438 1441 1444 1447 1450 1452 1455 1458 1461 1465 1468 1472 1475 1479 1482 1486 1489 1492 1495 1498 1501 1503 1506
1471 1471 1468 1460 1453 1452 1446 1438 1432 1428 1428 1425 1422 1420 1419 1417 1416 1417 1417 1418 1419 1420 1422 1423 1425 1428 1431 1434 1437 1439 1442 1445 1449 1452 1456 1459 1463 1466 1470 1473 1477 1480 1484 1487 1491 1494 1497 1500 1503
1468 1468 1464 1455 1449 1447 1442 1434 1428 1423 1422 1420 1418 1416 1414 1413 1411 1411 1412 1412 1413 1414 1415 1417 1419 1422 1425 1427 1430 1433 1436 1439 1443 1447 1450 1453 1457 1460 1464 1467 1471 1475 1479 1483 1486 1489 1492 1495 1499
1465 1465 1460 1455 1448 1444 1443 1432 1425 1418 1416 1414 1412 1411 1410 1409 1407 1407 1407 1407 1407 1408 1409 1411 1413 1416 1419 1422 1425 1429 1432 1434 1437 1440 1443 1447 1451 1454 1458 1461 1465 1469 1473 1476 1480 1483 1487 1490 1494
1463 1456 1453 1451 1453 1452 1447 1441 1424 1418 1413 1410 1408 1407 1406 1405 1404 1403 1402 1402 1402 1403 1405 1406 1408 1411 1414 1417 1419 1421 1423 1425 1427 1432 1436 1441 1445 1448 1452 1455 1458 1463 1467 1470 1474 1478 1481 1485 1487
1457 1452 1451 1449 1451 1453 1447 1447 1427 1418 1413 1407 1404 1403 1402 1401 1401 1400 1399 1399 1399 1399 1400 1401 1403 1405 1408 1411 1413 1415 1417 1420 1423 1427 1431 1434 1439 1442 1445 1449 1452 1456 1460 1464 1468 1472 1475 1479 1482
1453 1453 1451 1452 1454 1456 1443 1444 1430 1420 1411 1406 1403 1401 1399 1399 1398 1397 1397 1396 1396 1396 1396 1397 1399 1401 1403 1405 1408 1410 1412 1414 1417 1420 1424 1428 1431 1435 1438 1441 1445 1448 1453 1457 1461 1465 1469 1472 1476
1455 1460 1465 1465 1465 1454 1438 1437 1427 1413 1407 1404 1402 1399 1397 1396 1395 1394 1394 1394 1393 1393 1393 1393 1394 1396 1398 1400 1402 1405 1407 1409 1411 1413 1417 1420 1424 1428 1431 1434 1438 1441 1446 1450 1455 1459 1462 1466 1469
1455 1459 1468 1470 1464 1450 1438 1432 1420 1410 1406 1402 1399 1397 1396 1395 1395 1394 1393 1392 1391 1390 1390 1390 1391 1392 1393 1395 1396 1398 1401 1403 1405 1407 1410 1414 1417 1420 1424 1427 1431 1435 1439 1444 1448 1452 1456 1459 1463
1455 1457 1456 1461 1459 1456 1439 1428 1418 1408 1405 1401 1398 1396 1395 1394 1393 1392 1391 1390 1389 1388 1387 1387 1388 1388 1389 1390 1391 1392 1395 1397 1398 1400 1403 1407 1410 1414 1418 1420 1423 1428 1432 1437 1440 1445 1448 1452 1456
1450 1453 1459 1461 1461 1455 1441 1432 1422 1412 1407 1403 1400 1397 1395 1394 1393 1391 1390 1388 1387 1385 1385 1384 1384 1384 1384 1385 1387 1388 1389 1390 1392 1394 1396 1400 1403 1407 1411 1413 1416 1420 1425 1429 1433 1437 1441 1445 1448
1451 1452 1453 1457 1456 1454 1444 1428 1411 1409 1406 1404 1401 1398 1395 1394 1392 1390 1388 1386 1385 1383 1382 1381 1380 1380 1380 1381 1382 1383 1383 1384 1386 1388 1390 1393 1396 1399 1403 1407 1409 1413 1416 1421 1425 1429 1434 1437 1441
1445 1447 1450 1456 1454 1451 1447 1427 1407 1406 1403 1402 1400 1397 1394 1393 1391 1389 1387 1385 1383 1381 1379 1378 1377 1376 1376 1376 1377 1378 1378 1379 1380 1382 1384 1387 1389 1392 1396 1399 1402 1405 1408 1413 1416 1421 1425 1429 1433